| time (UTC) | temp F | wind direction | speed knots | gust knots | rain 1hr in | rain 24hr in | rain mn in | humidity % | barometer mb |
| 20260506044521 | 59 | 73 | 3.5 | 10.4 | 0.00 | 0.00 | 0.00 | 83 | 1012.4 |
| 20260506043104 | 59 | 16 | 2.6 | 8.7 | 0.00 | 0.00 | 0.00 | 83 | 1012.4 |
| 20260506041526 | 59 | 68 | 2.6 | 9.6 | 0.00 | 0.00 | 0.00 | 83 | 1012.3 |
| 20260506040108 | 59 | 141 | 4.3 | 9.6 | 0.00 | 0.00 | 0.00 | 83 | 1012.3 |
| 20260506034541 | 59 | 143 | 3.5 | 10.4 | 0.00 | 0.00 | 0.00 | 82 | 1012.3 |
| 20260506033006 | 59 | 169 | 5.2 | 10.4 | 0.00 | 0.00 | 0.00 | 82 | 1012.5 |
| 20260506031551 | 59 | 151 | 4.3 | 9.6 | 0.00 | 0.00 | 0.00 | 82 | 1012.3 |
| 20260506030020 | 59 | 113 | 3.5 | 9.6 | 0.00 | 0.00 | 0.00 | 81 | 1012.4 |
| 20260506024600 | 60 | 74 | 4.3 | 11.3 | 0.00 | 0.00 | 0.00 | 81 | 1012.6 |
| 20260506023026 | 60 | 51 | 2.6 | 8.7 | 0.00 | 0.00 | 0.00 | 80 | 1012.5 |
| 20260506021609 | 60 | 64 | 4.3 | 9.6 | 0.00 | 0.00 | 0.00 | 80 | 1012.6 |
| 20260506020039 | 60 | 179 | 3.5 | 10.4 | 0.00 | 0.00 | 0.00 | 80 | 1012.6 |
| 20260506014507 | 60 | 87 | 4.3 | 10.4 | 0.00 | 0.00 | 0.00 | 80 | 1012.3 |
| 20260506013054 | 60 | 72 | 2.6 | 10.4 | 0.00 | 0.00 | 0.00 | 80 | 1012.3 |
| 20260506011508 | 60 | 51 | 4.3 | 10.4 | 0.00 | 0.00 | 0.00 | 80 | 1012.2 |
| 20260506010037 | 59 | 74 | 4.3 | 8.7 | 0.00 | 0.00 | 0.00 | 81 | 1012.0 |
| 20260506004506 | 59 | 56 | 3.5 | 9.6 | 0.00 | 0.00 | 0.00 | 81 | 1011.8 |
| 20260506003045 | 59 | 172 | 2.6 | 7.8 | 0.00 | 0.00 | 0.00 | 81 | 1011.8 |
| 20260506001514 | 59 | 11 | 3.5 | 9.6 | 0.00 | 0.00 | 0.00 | 81 | 1011.8 |
| 20260506000054 | 60 | 65 | 2.6 | 10.4 | 0.00 | 0.00 | 0.00 | 80 | 1011.7 |
| 20260505234522 | 60 | 98 | 3.5 | 10.4 | 0.00 | 0.00 | 0.00 | 79 | 1011.6 |
| 20260505233100 | 61 | 122 | 4.3 | 11.3 | 0.00 | 0.00 | 0.00 | 77 | 1011.5 |
| 20260505231534 | 62 | 68 | 4.3 | 9.6 | 0.00 | 0.00 | 0.00 | 76 | 1011.6 |
| 20260505230003 | 62 | 160 | 3.5 | 12.2 | 0.00 | 0.00 | 0.00 | 74 | 1011.3 |
| 20260505224546 | 63 | 76 | 3.5 | 9.6 | 0.00 | 0.00 | 0.00 | 73 | 1011.3 |
| 20260505223019 | 63 | 156 | 4.3 | 13.0 | 0.00 | 0.00 | 0.00 | 73 | 1011.2 |
| 20260505221600 | 63 | 91 | 4.3 | 10.4 | 0.00 | 0.00 | 0.00 | 72 | 1011.4 |
| 20260505220030 | 63 | 195 | 3.5 | 10.4 | 0.00 | 0.00 | 0.00 | 72 | 1011.2 |
| 20260505214502 | 63 | 79 | 4.3 | 10.4 | 0.00 | 0.00 | 0.00 | 72 | 1010.9 |
| 20260505213043 | 63 | 117 | 3.5 | 8.7 | 0.00 | 0.00 | 0.00 | 71 | 1011.1 |
| 20260505211512 | 64 | 68 | 4.3 | 9.6 | 0.00 | 0.00 | 0.00 | 70 | 1010.9 |
| 20260505210055 | 65 | 37 | 4.3 | 10.4 | 0.00 | 0.00 | 0.00 | 69 | 1010.8 |
| 20260505204523 | 65 | 75 | 4.3 | 13.0 | 0.00 | 0.00 | 0.00 | 69 | 1010.7 |
| 20260505203108 | 65 | 81 | 4.3 | 12.2 | 0.00 | 0.00 | 0.00 | 69 | 1010.7 |
| 20260505201543 | 65 | 75 | 5.2 | 10.4 | 0.00 | 0.00 | 0.00 | 68 | 1010.9 |
| 20260505200016 | 66 | 106 | 4.3 | 12.2 | 0.00 | 0.00 | 0.00 | 68 | 1011.4 |
| 20260505194558 | 67 | 91 | 2.6 | 10.4 | 0.00 | 0.00 | 0.00 | 66 | 1011.3 |
| 20260505193027 | 67 | 83 | 3.5 | 11.3 | 0.00 | 0.00 | 0.00 | 66 | 1011.6 |
| 20260505191612 | 67 | 136 | 4.3 | 8.7 | 0.00 | 0.00 | 0.00 | 65 | 1012.0 |
| 20260505190046 | 68 | 112 | 3.5 | 9.6 | 0.00 | 0.00 | 0.00 | 65 | 1011.8 |
| 20260505184513 | 68 | 102 | 2.6 | 7.0 | 0.00 | 0.00 | 0.00 | 65 | 1011.8 |
| 20260505183104 | 68 | 139 | 2.6 | 6.1 | 0.00 | 0.00 | 0.00 | 65 | 1011.8 |
| 20260505181522 | 69 | 158 | 2.6 | 9.6 | 0.00 | 0.00 | 0.00 | 64 | 1011.8 |
| 20260505180105 | 69 | 278 | 2.6 | 7.8 | 0.00 | 0.00 | 0.00 | 65 | 1012.1 |
| 20260505174528 | 69 | 218 | 1.7 | 6.1 | 0.00 | 0.00 | 0.00 | 65 | 1012.2 |
| 20260505173004 | 70 | 46 | 1.7 | 6.1 | 0.00 | 0.00 | 0.00 | 64 | 1012.3 |
| 20260505171547 | 69 | 340 | 1.7 | 7.0 | 0.00 | 0.00 | 0.00 | 67 | 1012.4 |
| 20260505170016 | 68 | 110 | 2.6 | 6.1 | 0.00 | 0.00 | 0.00 | 67 | 1012.3 |
| 20260505164604 | 67 | 34 | 1.7 | 7.8 | 0.00 | 0.00 | 0.00 | 70 | 1012.2 |
| 20260505163025 | 66 | 68 | 0.9 | 6.1 | 0.00 | 0.00 | 0.00 | 71 | 1012.3 |
| 20260505161608 | 65 | 76 | 0.9 | 8.7 | 0.00 | 0.00 | 0.00 | 73 | 1012.4 |
| 20260505153042 | 65 | 34 | 1.7 | 6.1 | 0.00 | 0.00 | 0.00 | 74 | 1012.7 |
| 20260505151512 | 65 | 67 | 1.7 | 7.8 | 0.00 | 0.00 | 0.00 | 73 | 1012.6 |
| 20260505124609 | 62 | 150 | 0.9 | 5.2 | 0.00 | 0.00 | 0.00 | 77 | 1012.6 |
| 20260505123037 | 61 | 94 | 0.9 | 4.3 | 0.00 | 0.00 | 0.00 | 79 | 1012.5 |
| 20260505121510 | 59 | 58 | 0.9 | 3.5 | 0.00 | 0.00 | 0.00 | 83 | 1012.5 |
| 20260505120051 | 59 | 92 | 0.0 | 3.5 | 0.00 | 0.00 | 0.00 | 82 | 1012.4 |
| 20260505114519 | 58 | 148 | 0.9 | 3.5 | 0.00 | 0.00 | 0.00 | 84 | 1012.4 |
| 20260505113101 | 58 | 105 | 0.9 | 4.3 | 0.00 | 0.00 | 0.00 | 84 | 1012.2 |
| 20260505111515 | 58 | 85 | 0.0 | 3.5 | 0.00 | 0.00 | 0.00 | 83 | 1012.3 |
| 20260505101541 | 56 | 121 | 0.0 | 0.9 | 0.00 | 0.00 | 0.00 | 85 | 1011.7 |
| 20260505100003 | 56 | 70 | 0.0 | 0.9 | 0.00 | 0.00 | 0.00 | 85 | 1011.5 |
| 20260505094544 | 56 | 110 | 0.0 | 2.6 | 0.00 | 0.00 | 0.00 | 85 | 1011.5 |
| 20260505093015 | 58 | 117 | 0.0 | 2.6 | 0.00 | 0.00 | 0.00 | 81 | 1011.4 |
| 20260505091606 | 57 | 92 | 0.0 | 1.7 | 0.00 | 0.00 | 0.00 | 82 | 1011.2 |
| 20260505090032 | 57 | 139 | 0.0 | 1.7 | 0.00 | 0.00 | 0.00 | 84 | 1011.2 |
| 20260505084502 | 57 | 169 | 0.0 | 2.6 | 0.00 | 0.00 | 0.00 | 85 | 1011.2 |
| 20260505083046 | 57 | 86 | 0.0 | 2.6 | 0.00 | 0.00 | 0.00 | 85 | 1011.2 |
| 20260505081516 | 57 | 120 | 0.9 | 3.5 | 0.00 | 0.00 | 0.00 | 85 | 1011.2 |
| 20260505080058 | 57 | 112 | 1.7 | 5.2 | 0.00 | 0.00 | 0.00 | 86 | 1011.3 |
| 20260505074527 | 57 | 187 | 0.9 | 3.5 | 0.00 | 0.00 | 0.00 | 85 | 1011.2 |
| 20260505073138 | 57 | 104 | 1.7 | 6.1 | 0.00 | 0.00 | 0.00 | 84 | 1011.2 |
| 20260505071601 | 58 | 122 | 1.7 | 3.5 | 0.00 | 0.00 | 0.00 | 84 | 1011.1 |
| 20260505070028 | 58 | 108 | 0.9 | 4.3 | 0.00 | 0.00 | 0.00 | 85 | 1011.0 |
| 20260505064606 | 57 | 39 | 0.9 | 3.5 | 0.00 | 0.00 | 0.00 | 86 | 1011.0 |
| 20260505063039 | 56 | 98 | 0.9 | 3.5 | 0.00 | 0.00 | 0.00 | 87 | 1011.0 |
| 20260505061517 | 56 | 105 | 0.9 | 7.0 | 0.00 | 0.00 | 0.00 | 88 | 1011.1 |
| 20260505060053 | 56 | 187 | 1.7 | 5.2 | 0.00 | 0.00 | 0.00 | 88 | 1011.2 |
| 20260505054522 | 56 | 65 | 0.9 | 4.3 | 0.00 | 0.00 | 0.00 | 87 | 1011.1 |